Location: Easthampton
(42.2676°N, 72.6690°W)
Time: 06:30:39
(UTC+00:00)

N. Korean satellite - Pass Details

Date: 08 December 2022
Orbit: 407 x 444 km, 97.3° (Epoch: 28 January)

Event Time Altitude Azimuth Distance (km) Brightness Sun altitude
Rises 10:15:00 0° 10° (N) 2,495 10.2 -20.0°
Reaches altitude 10° 10:17:04 10° 9° (N) 1,608 9.2 -19.6°
Maximum altitude 10:20:31 79° 284° (WNW) 466 6.2 -19.0°
Drops below altitude 10° 10:23:52 10° 197° (SSW) 1,564 9.1 -18.4°
Sets 10:25:52 0° 196° (SSW) 2,419 10.1 -18.0°
